When you browse on this site, cookies collect data to enhance your experience and personalize the content and advertising you see.
Visit our Privacy Policy to learn more. By continuing to use the site, you agree to this use of cookies and data.
  • In Hungary
  • List of Countries
  • For 7 days
  • Water Temperature
  • Satellite Maps
  • Weather Map
  • News
  • Weather Widgets
  • user-avatar
    Login

    Hourly Weather Nsok

    Today, 12 December, Wednesday

    Time Temperature Precipitation Wind Pressure Humidity
    00:00 +23°C° 0 mm 1 mps 709 mmHg 96%
    01:00 +23°C° 0 mm 1 mps 709 mmHg 96%
    02:00 +22°C° 0 mm 1 mps 709 mmHg 97%
    03:00 +22°C° 0 mm 1 mps 709 mmHg 97%
    04:00 +22°C° 0 mm 1 mps 708 mmHg 98%
    05:00 +22°C° 0 mm 1 mps 709 mmHg 97%
    06:00 +20°C° 0 mm 0 mps 709 mmHg 96%
    07:00 +20°C° 0 mm 0 mps 709 mmHg 95%
    08:00 +23°C° 0 mm 0 mps 710 mmHg 86%
    09:00 +25°C° 0 mm 0 mps 711 mmHg 76%
    10:00 +27°C° 0 mm 0 mps 711 mmHg 66%
    11:00 +29°C° 0.1 mm 0 mps 711 mmHg 60%
    12:00 +30°C° 0.1 mm 0 mps 710 mmHg 55%
    13:00 +32°C° 0.1 mm 0 mps 710 mmHg 49%
    14:00 +31°C° 0.1 mm 0 mps 709 mmHg 51%
    15:00 +30°C° 0.1 mm 0 mps 708 mmHg 53%
    16:00 +29°C° 0.1 mm 0 mps 708 mmHg 55%
    17:00 +27°C° 0.6 mm 0 mps 708 mmHg 64%
    18:00 +27°C° 0.6 mm 1 mps 708 mmHg 74%
    19:00 +25°C° 0.6 mm 1 mps 709 mmHg 84%
    20:00 +24°C° 0.8 mm 1 mps 709 mmHg 87%
    21:00 +24°C° 0.8 mm 1 mps 710 mmHg 91%
    22:00 +23°C° 0.8 mm 1 mps 710 mmHg 94%
    23:00 +23°C° 0 mm 1 mps 710 mmHg 95%

    Tomorrow, 13 December, Thursday

    Time Temperature Precipitation Wind Pressure Humidity
    00:00 +22°C° 0 mm 1 mps 710 mmHg 95%
    01:00 +22°C° 0 mm 1 mps 709 mmHg 96%
    02:00 +22°C° 0 mm 1 mps 709 mmHg 96%
    03:00 +22°C° 0 mm 1 mps 709 mmHg 96%
    04:00 +21°C° 0 mm 1 mps 709 mmHg 97%
    05:00 +22°C° 0.1 mm 1 mps 709 mmHg 96%
    06:00 +22°C° 0.1 mm 1 mps 709 mmHg 96%
    07:00 +22°C° 0.1 mm 1 mps 710 mmHg 95%
    08:00 +24°C° 0 mm 1 mps 710 mmHg 86%
    09:00 +26°C° 0 mm 1 mps 711 mmHg 78%
    10:00 +28°C° 0 mm 1 mps 712 mmHg 69%
    11:00 +29°C° 0 mm 1 mps 711 mmHg 64%
    12:00 +30°C° 0 mm 1 mps 710 mmHg 60%
    13:00 +31°C° 0 mm 1 mps 709 mmHg 55%
    14:00 +31°C° 0.5 mm 1 mps 709 mmHg 60%
    15:00 +30°C° 0.5 mm 1 mps 708 mmHg 65%
    16:00 +29°C° 0.5 mm 1 mps 708 mmHg 70%
    17:00 +27°C° 1.2 mm 1 mps 708 mmHg 78%
    18:00 +25°C° 1.2 mm 1 mps 709 mmHg 86%
    19:00 +24°C° 1.2 mm 1 mps 709 mmHg 93%
    20:00 +24°C° 0.2 mm 1 mps 709 mmHg 94%
    21:00 +23°C° 0.2 mm 1 mps 710 mmHg 94%
    22:00 +23°C° 0.2 mm 1 mps 710 mmHg 95%
    23:00 +23°C° 0 mm 1 mps 710 mmHg 96%

    Day after tomorrow, 14 December, Friday

    Time Temperature Precipitation Wind Pressure Humidity
    00:00 +23°C° 0 mm 1 mps 709 mmHg 96%
    01:00 +22°C° 0 mm 1 mps 709 mmHg 97%
    02:00 +22°C° 0 mm 1 mps 709 mmHg 97%
    03:00 +22°C° 0 mm 1 mps 708 mmHg 97%
    04:00 +22°C° 0 mm 1 mps 708 mmHg 98%
    05:00 +20°C° 0 mm 0 mps 709 mmHg 97%
    06:00 +20°C° 0 mm 0 mps 710 mmHg 97%
    07:00 +21°C° 0 mm 0 mps 710 mmHg 96%
    08:00 +22°C° 0.1 mm 0 mps 711 mmHg 90%
    09:00 +25°C° 0.1 mm 1 mps 711 mmHg 85%
    10:00 +26°C° 0.1 mm 1 mps 712 mmHg 79%
    11:00 +28°C° 0 mm 1 mps 711 mmHg 72%
    12:00 +30°C° 0 mm 1 mps 710 mmHg 65%
    13:00 +31°C° 0 mm 1 mps 709 mmHg 58%
    14:00 +31°C° 0.1 mm 1 mps 709 mmHg 58%
    15:00 +31°C° 0.1 mm 1 mps 708 mmHg 59%
    16:00 +30°C° 0.1 mm 1 mps 708 mmHg 59%
    17:00 +28°C° 0.9 mm 1 mps 708 mmHg 70%
    18:00 +24°C° 0.9 mm 0 mps 708 mmHg 81%
    19:00 +22°C° 0.9 mm 0 mps 709 mmHg 92%
    20:00 +22°C° 0.2 mm 0 mps 709 mmHg 93%
    21:00 +23°C° 0.2 mm 1 mps 710 mmHg 94%
    22:00 +23°C° 0.2 mm 1 mps 710 mmHg 95%
    23:00 +23°C° 0 mm 1 mps 709 mmHg 96%

    15 December, Saturday

    Time Temperature Precipitation Wind Pressure Humidity
    00:00 +22°C° 0 mm 1 mps 709 mmHg 97%
    01:00 +22°C° 0 mm 1 mps 708 mmHg 97%
    02:00 +22°C° 0 mm 1 mps 708 mmHg 98%
    03:00 +22°C° 0 mm 1 mps 708 mmHg 98%
    04:00 +19°C° 0 mm 0 mps 708 mmHg 98%
    05:00 +20°C° 0 mm 0 mps 708 mmHg 98%
    06:00 +20°C° 0 mm 0 mps 709 mmHg 97%
    07:00 +20°C° 0 mm 0 mps 710 mmHg 96%
    08:00 +22°C° 0 mm 0 mps 710 mmHg 89%
    09:00 +25°C° 0 mm 1 mps 711 mmHg 82%
    10:00 +27°C° 0 mm 1 mps 711 mmHg 75%
    11:00 +28°C° 0 mm 1 mps 710 mmHg 69%
    12:00 +29°C° 0 mm 1 mps 710 mmHg 64%
    13:00 +30°C° 0 mm 1 mps 709 mmHg 58%
    14:00 +31°C° 0 mm 1 mps 708 mmHg 57%
    15:00 +31°C° 0 mm 1 mps 708 mmHg 56%
    16:00 +31°C° 0 mm 1 mps 708 mmHg 56%
    17:00 +29°C° 0.1 mm 1 mps 708 mmHg 65%
    18:00 +27°C° 0.1 mm 1 mps 708 mmHg 74%
    19:00 +25°C° 0.1 mm 1 mps 709 mmHg 83%
    20:00 +24°C° 0.7 mm 1 mps 709 mmHg 87%
    21:00 +24°C° 0.7 mm 1 mps 709 mmHg 91%
    22:00 +23°C° 0.7 mm 1 mps 710 mmHg 95%
    23:00 +23°C° 0 mm 1 mps 709 mmHg 96%

    16 December, Sunday

    Time Temperature Precipitation Wind Pressure Humidity
    00:00 +22°C° 0 mm 1 mps 709 mmHg 96%
    01:00 +22°C° 0 mm 1 mps 709 mmHg 96%
    02:00 +22°C° 0 mm 1 mps 709 mmHg 96%
    03:00 +22°C° 0 mm 1 mps 708 mmHg 96%
    04:00 +22°C° 0 mm 1 mps 708 mmHg 97%
    05:00 +22°C° 0 mm 1 mps 709 mmHg 96%
    06:00 +22°C° 0 mm 1 mps 709 mmHg 96%
    07:00 +22°C° 0 mm 1 mps 709 mmHg 95%
    08:00 +24°C° 0 mm 1 mps 710 mmHg 84%
    09:00 +26°C° 0 mm 1 mps 710 mmHg 74%
    10:00 +29°C° 0 mm 1 mps 711 mmHg 63%
    11:00 +30°C° 0.1 mm 1 mps 710 mmHg 60%
    12:00 +30°C° 0.1 mm 1 mps 709 mmHg 56%
    13:00 +31°C° 0.1 mm 1 mps 709 mmHg 53%
    14:00 +31°C° 0.2 mm 1 mps 708 mmHg 56%
    15:00 +30°C° 0.2 mm 1 mps 708 mmHg 59%
    16:00 +30°C° 0.2 mm 1 mps 708 mmHg 62%
    17:00 +28°C° 0.6 mm 1 mps 708 mmHg 71%
    18:00 +26°C° 0.6 mm 1 mps 708 mmHg 81%
    19:00 +24°C° 0.6 mm 1 mps 709 mmHg 90%
    20:00 +24°C° 0.3 mm 1 mps 709 mmHg 92%
    21:00 +23°C° 0.3 mm 1 mps 709 mmHg 93%
    22:00 +23°C° 0.3 mm 1 mps 710 mmHg 94%
    23:00 +23°C° 0 mm 1 mps 709 mmHg 95%

    17 December, Monday

    Time Temperature Precipitation Wind Pressure Humidity
    00:00 +22°C° 0 mm 1 mps 709 mmHg 95%
    01:00 +22°C° 0 mm 1 mps 709 mmHg 95%
    02:00 +22°C° 0 mm 1 mps 709 mmHg 95%
    03:00 +22°C° 0 mm 1 mps 708 mmHg 95%
    04:00 +22°C° 0 mm 1 mps 708 mmHg 95%
    05:00 +22°C° 0 mm 1 mps 709 mmHg 95%
    06:00 +22°C° 0 mm 1 mps 709 mmHg 95%
    07:00 +20°C° 0 mm 0 mps 710 mmHg 94%
    08:00 +24°C° 0 mm 1 mps 710 mmHg 85%
    09:00 +26°C° 0 mm 1 mps 711 mmHg 75%
    10:00 +28°C° 0 mm 1 mps 711 mmHg 65%
    11:00 +30°C° 0 mm 1 mps 710 mmHg 60%
    12:00 +31°C° 0 mm 1 mps 710 mmHg 54%
    13:00 +32°C° 0 mm 1 mps 709 mmHg 48%
    14:00 +32°C° 0.1 mm 1 mps 709 mmHg 52%
    15:00 +31°C° 0.1 mm 1 mps 708 mmHg 56%
    16:00 +30°C° 0.1 mm 1 mps 708 mmHg 59%
    17:00 +28°C° 0.6 mm 1 mps 708 mmHg 70%
    18:00 +26°C° 0.6 mm 1 mps 708 mmHg 80%
    19:00 +24°C° 0.6 mm 1 mps 708 mmHg 91%
    20:00 +24°C° 0.4 mm 1 mps 709 mmHg 92%
    21:00 +23°C° 0.4 mm 1 mps 709 mmHg 93%
    22:00 +23°C° 0.4 mm 1 mps 710 mmHg 95%
    23:00 +23°C° 0 mm 1 mps 709 mmHg 95%
    Show more